Weather History for KHZY - August, 2014

Change the Weather History Date:

Wednesday, August 20, 2014

  Actual Average (KYNG) Record (KYNG)
Temperature  
Mean Temperature 72 °F 69 °F  
Max Temperature 80 °F 80 °F 93 °F (1955)
Min Temperature 64 °F 58 °F 45 °F (1998)
Degree Days  
Heating Degree Days 0 1  
Month to date heating degree days 15  
Since 1 June heating degree days 97  
Since 1 July heating degree days 28  
Cooling Degree Days 7 5  
Month to date cooling degree days 108  
Year to date cooling degree days 442  
Since 1 June cooling degree days 403  
Growing Degree Days 22 (Base 50)    
Moisture  
Dew Point 66 °F    
Average Humidity 87    
Maximum Humidity 97    
Minimum Humidity 65    
Precipitation  
Precipitation 0.70 in 0.10 in - ()
Month to date precipitation 2.07  
Year to date precipitation 25.05  
Snow  
Snow 0.00 in 0.00 in - ()
Month to date snowfall 0.0  
Since 1 June snowfall 0.0  
Since 1 July snowfall 0.0  
Snow Depth -    
Sea Level Pressure  
Sea Level Pressure 29.90 in    
Wind  
Wind Speed 9 mph (SSW)    
Max Wind Speed 21 mph    
Max Gust Speed 30 mph    
Visibility 8 miles    
Events Rain , Thunderstorm    
T = Trace of Precipitation, MM = Missing Value Source: NWS Daily Summary

Daily Weather History Graph

Daily Weather History Graph

Search for Another Location

Airport or City:

Trip Planner

Search our weather history database for the weather conditions in past years. The results will help you decide how hot, cold, wet, or windy it might be!

Date:

Astronomy

Aug. 20, 2014 Rise Set
Actual Time 6:36 AM EDT 8:15 PM EDT
Civil Twilight 6:06 AM EDT 8:44 PM EDT
Nautical Twilight 5:30 AM EDT 9:20 PM EDT
Astronomical Twilight 4:52 AM EDT 9:58 PM EDT
Moon 2:13 AM EDT (8/20) 5:00 PM EDT (8/20)
Length of Visible Light 14h 38m
Length of Day
13h 39m
Waning Crescent, 21% of the Moon is Illuminated
Aug 20
Waning Crescent
Aug 25
New
Sep 2
First Quarter
Sep 8
Full
Sep 15
Last Quarter

Hourly Weather History & Observations

Time (EDT) Temp. Heat Index Dew Point Humidity Pressure Visibility Wind Dir Wind Speed Gust Speed Precip Events Conditions
12:53 AM 64.9 °F - 64.0 °F 97% 29.86 in 10.0 mi SSE 9.2 mph - 0.08 in   Mostly Cloudy
1:53 AM 66.0 °F - 63.0 °F 90% 29.86 in 10.0 mi SSE 11.5 mph - 0.01 in Rain Light Rain
2:53 AM 64.9 °F - 63.0 °F 93% 29.83 in 10.0 mi SSE 10.4 mph - 0.00 in   Scattered Clouds
3:53 AM 64.9 °F - 63.0 °F 93% 29.84 in 10.0 mi SSE 6.9 mph - N/A   Overcast
4:53 AM 64.9 °F - 63.0 °F 93% 29.85 in 8.0 mi South 8.1 mph - 0.08 in Rain Light Rain
5:53 AM 64.9 °F - 63.0 °F 93% 29.84 in 10.0 mi SSE 5.8 mph - 0.01 in   Partly Cloudy
6:53 AM 64.9 °F - 63.0 °F 93% 29.87 in 10.0 mi South 5.8 mph - N/A   Mostly Cloudy
7:51 AM 64.4 °F - 62.6 °F 94% 29.89 in 10.0 mi South 8.1 mph - 0.02 in Rain Light Rain
7:53 AM 64.9 °F - 63.0 °F 93% 29.87 in 10.0 mi South 9.2 mph - 0.02 in Rain Light Rain
8:13 AM 64.9 °F - 64.0 °F 97% 29.90 in 10.0 mi SW 8.1 mph - 0.01 in Rain Light Rain
8:48 AM 66.2 °F - 64.4 °F 94% 29.91 in 10.0 mi SSW 8.1 mph - 0.04 in Rain Light Rain
8:53 AM 66.0 °F - 64.0 °F 93% 29.90 in 10.0 mi South 8.1 mph - 0.04 in Rain Light Rain
9:53 AM 66.9 °F - 64.9 °F 93% 29.90 in 10.0 mi South 8.1 mph - 0.00 in   Mostly Cloudy
10:53 AM 71.1 °F - 66.0 °F 84% 29.91 in 10.0 mi South 11.5 mph - N/A   Scattered Clouds
11:53 AM 75.0 °F - 66.0 °F 73% 29.89 in 10.0 mi South 10.4 mph - N/A   Clear
12:46 PM 75.9 °F - 64.9 °F 69% 29.91 in 10.0 mi SW 12.7 mph - N/A   Mostly Cloudy
12:53 PM 77.0 °F - 66.0 °F 69% 29.90 in 10.0 mi SSW 13.8 mph 19.6 mph N/A   Scattered Clouds
1:53 PM 78.1 °F - 66.9 °F 68% 29.89 in 10.0 mi South 11.5 mph - N/A   Scattered Clouds
2:07 PM 80.1 °F 82.7 °F 68.0 °F 67% 29.91 in 10.0 mi SSW 9.2 mph - N/A   Mostly Cloudy
2:39 PM 79.0 °F - 68.0 °F 69% 29.89 in 10.0 mi South 11.5 mph - N/A Thunderstorm Mostly Cloudy
2:50 PM 78.8 °F - 66.2 °F 65% 29.90 in 10.0 mi South 10.4 mph - N/A Thunderstorm Thunderstorm
2:53 PM 78.1 °F - 66.9 °F 68% 29.88 in 10.0 mi SSW 11.5 mph - N/A Thunderstorm Thunderstorm
3:07 PM 70.0 °F - 64.9 °F 84% 29.92 in 2.5 mi NNW 20.7 mph 29.9 mph 0.09 in Rain , Thunderstorm Heavy Thunderstorms and Rain
3:09 PM 69.1 °F - 64.9 °F 87% 29.92 in 1.2 mi NNW 11.5 mph 29.9 mph 0.16 in Rain , Thunderstorm Heavy Thunderstorms and Rain
3:12 PM 68.0 °F - 66.0 °F 93% 29.93 in 0.8 mi NW 11.5 mph 29.9 mph 0.19 in Rain , Thunderstorm Heavy Thunderstorms and Rain
3:20 PM 68.0 °F - 66.0 °F 93% 29.92 in 1.5 mi NNW 8.1 mph 17.3 mph 0.24 in Rain , Thunderstorm Light Thunderstorms and Rain
3:24 PM 68.0 °F - 66.0 °F 93% 29.92 in 4.0 mi NNW 9.2 mph - 0.25 in Rain , Thunderstorm Light Thunderstorms and Rain
3:49 PM 69.8 °F - 68.0 °F 94% 29.91 in 10.0 mi East 6.9 mph - 0.26 in Thunderstorm Mostly Cloudy
3:50 PM 71.1 °F - 68.0 °F 90% 29.90 in 10.0 mi East 6.9 mph - 0.26 in Thunderstorm Mostly Cloudy
4:19 PM 71.1 °F - 66.9 °F 87% 29.94 in 4.0 mi WNW 4.6 mph - 0.02 in Rain , Thunderstorm Light Thunderstorms and Rain
4:22 PM 70.0 °F - 66.9 °F 90% 29.94 in 1.8 mi West 4.6 mph - 0.05 in Rain , Thunderstorm Thunderstorms and Rain
4:53 PM 69.1 °F - 66.0 °F 90% 29.94 in 1.8 mi SW 8.1 mph - 0.19 in Rain , Thunderstorm Thunderstorms and Rain
4:59 PM 69.1 °F - 66.0 °F 90% 29.95 in 4.0 mi South 3.5 mph - 0.00 in Rain , Thunderstorm Light Thunderstorms and Rain
5:06 PM 69.1 °F - 66.9 °F 93% 29.95 in 10.0 mi Calm Calm - 0.01 in Rain , Thunderstorm Light Rain
5:53 PM 75.0 °F - 68.0 °F 79% 29.92 in 10.0 mi West 5.8 mph - 0.01 in   Clear
6:53 PM 75.0 °F - 69.1 °F 82% 29.92 in 10.0 mi South 4.6 mph - N/A   Clear
7:53 PM 72.0 °F - 68.0 °F 87% 29.91 in 10.0 mi South 6.9 mph - N/A   Clear
8:53 PM 69.1 °F - 66.9 °F 93% 29.92 in 10.0 mi South 5.8 mph - N/A   Clear
9:53 PM 68.0 °F - 66.0 °F 93% 29.94 in 10.0 mi South 4.6 mph - N/A   Clear
10:53 PM 66.9 °F - 64.9 °F 93% 29.96 in 10.0 mi South 4.6 mph - N/A   Clear
11:53 PM 66.0 °F - 64.9 °F 96% 29.96 in 10.0 mi South 3.5 mph - N/A   Scattered Clouds